Weather History for San Angelo, TX

Change the Weather History Date:

Tuesday, March 18, 2014

  Actual Average Record
Temperature  
Mean Temperature 71 °F 58 °F  
Max Temperature 89 °F 72 °F 94 °F (1908)
Min Temperature 53 °F 45 °F 26 °F (1965)
Degree Days  
Heating Degree Days 0 8  
Month to date heating degree days 204 175  
Since 1 July heating degree days 2324 2136  
Cooling Degree Days 6 1  
Month to date cooling degree days 19 15  
Year to date cooling degree days 22 20  
Growing Degree Days 22 (Base 50)    
Moisture  
Dew Point 15 °F    
Average Humidity 20    
Maximum Humidity 35    
Minimum Humidity 4    
Precipitation  
Precipitation 0.00 in 0.04 in 1.22 in (2008)
Month to date precipitation 0.02 0.89  
Year to date precipitation 0.08 3.17  
Snow  
Snow 0.00 in 0.00 in T in (1958)
Month to date snowfall T 0.1  
Since 1 July snowfall 1.6 2.2  
Snow Depth 0.00 in    
Sea Level Pressure  
Sea Level Pressure 29.64 in    
Wind  
Wind Speed 18 mph (WSW)    
Max Wind Speed 29 mph    
Max Gust Speed 38 mph    
Visibility 10 miles    
Events      
T = Trace of Precipitation, MM = Missing Value Source: NWS Daily Summary

Daily Weather History Graph

Daily Weather History Graph

Search for Another Location

Airport:

Trip Planner

Search our weather history database for the weather conditions in past years. The results will help you decide how hot, cold, wet, or windy it might be!

Date:

Astronomy

Mar. 18, 2014 Rise Set
Actual Time 7:48 AM CDT 7:52 PM CDT
Civil Twilight 7:24 AM CDT 8:16 PM CDT
Nautical Twilight 6:55 AM CDT 8:44 PM CDT
Astronomical Twilight 6:27 AM CDT 9:13 PM CDT
Moon 10:00 PM CDT (3/18) 8:47 AM CDT (3/18)
Length of Visible Light 12h 52m
Length of Day
12h 03m
Waning Gibbous, 96% of the Moon is Illuminated
Mar 18
Waning Gibbous
Mar 23
Last Quarter
Mar 30
New
Apr 7
First Quarter
Apr 15
Full

Hourly Weather History & Observations

Time (CDT) Temp. Dew Point Humidity Pressure Visibility Wind Dir Wind Speed Gust Speed Precip Events Conditions
12:51 AM 60.1 °F 21.0 °F 22% 29.59 in 10.0 mi South 17.3 mph 27.6 mph N/A   Clear
1:51 AM 59.0 °F 21.9 °F 24% 29.57 in 10.0 mi South 21.9 mph 28.8 mph N/A   Clear
2:51 AM 59.0 °F 21.9 °F 24% 29.56 in 10.0 mi South 26.5 mph 36.8 mph N/A   Clear
3:51 AM 59.0 °F 23.0 °F 25% 29.54 in 10.0 mi South 20.7 mph 32.2 mph N/A   Clear
4:51 AM 57.9 °F 23.0 °F 26% 29.53 in 10.0 mi South 26.5 mph 33.4 mph N/A   Clear
5:51 AM 55.9 °F 24.1 °F 29% 29.56 in 10.0 mi South 19.6 mph 28.8 mph N/A   Clear
6:51 AM 54.0 °F 25.0 °F 33% 29.59 in 10.0 mi SW 12.7 mph - N/A   Clear
7:51 AM 54.0 °F 26.1 °F 34% 29.60 in 10.0 mi SSW 10.4 mph - N/A   Clear
8:51 AM 57.0 °F 27.0 °F 32% 29.63 in 10.0 mi SSW 17.3 mph 23.0 mph N/A   Clear
9:51 AM 64.0 °F 26.1 °F 24% 29.65 in 10.0 mi SSW 15.0 mph 24.2 mph N/A   Clear
10:51 AM 71.1 °F 24.1 °F 17% 29.65 in 10.0 mi WSW 18.4 mph - N/A   Clear
11:51 AM 79.0 °F 21.0 °F 12% 29.64 in 10.0 mi WSW 19.6 mph - N/A   Clear
12:51 PM 84.9 °F 12.9 °F 7% 29.61 in 10.0 mi West 25.3 mph 31.1 mph N/A   Clear
1:51 PM 87.1 °F 10.0 °F 6% 29.59 in 10.0 mi West 20.7 mph 33.4 mph N/A   Clear
2:51 PM 87.1 °F 10.0 °F 6% 29.58 in 10.0 mi WSW 23.0 mph 32.2 mph N/A   Clear
3:51 PM 88.0 °F 6.1 °F 5% 29.57 in 10.0 mi West 19.6 mph 32.2 mph N/A   Clear
4:51 PM 89.1 °F 7.0 °F 5% 29.58 in 10.0 mi West 20.7 mph 27.6 mph N/A   Clear
5:51 PM 87.1 °F 9.0 °F 5% 29.60 in 10.0 mi West 23.0 mph 33.4 mph N/A   Clear
6:51 PM 84.9 °F 9.0 °F 6% 29.63 in 10.0 mi WNW 17.3 mph 26.5 mph N/A   Clear
7:51 PM 79.0 °F 9.0 °F 7% 29.67 in 10.0 mi NW 8.1 mph - N/A   Clear
8:51 PM 75.0 °F 12.0 °F 9% 29.72 in 10.0 mi North 17.3 mph - N/A   Clear
9:51 PM 71.1 °F -0.0 °F 6% 29.78 in 7.0 mi North 17.3 mph 24.2 mph N/A   Overcast
10:51 PM 66.0 °F -0.9 °F 7% 29.82 in 7.0 mi NNE 6.9 mph - N/A   Clear
11:51 PM 66.0 °F 1.9 °F 8% 29.86 in 8.0 mi NNE 10.4 mph 27.6 mph N/A   Scattered Clouds
11:58 PM 64.9 °F 3.9 °F 9% 29.93 in 8.0 mi NE 24.2 mph 31.1 mph N/A   Mostly Cloudy